Time,TemperatureF,DewpointF,PressureIn,WindDirection,WindDirectionDegrees,WindSpeedMPH,WindSpeedGustMPH,Humidity,HourlyPrecipIn,Conditions,Clouds,dailyrainin,SoftwareType,DateUTC
2013-07-22 00:03:00,74.9,69.0,29.86,SE,139,1.0,2.0,83,0.00,,,0.00,weatherlink.com 1.10,2013-07-22 04:03:00,
2013-07-22 00:18:00,74.6,70.0,29.86,SSE,156,1.0,1.0,85,0.00,,,0.00,weatherlink.com 1.10,2013-07-22 04:18:00,
2013-07-22 00:33:00,74.2,70.0,29.85,SE,140,1.0,1.0,85,0.00,,,0.00,weatherlink.com 1.10,2013-07-22 04:33:00,
2013-07-22 00:48:00,74.2,70.0,29.84,SSE,166,1.0,2.0,85,0.00,,,0.00,weatherlink.com 1.10,2013-07-22 04:48:00,
2013-07-22 01:03:00,73.9,69.0,29.84,SE,139,2.0,4.0,85,0.00,,,0.00,weatherlink.com 1.10,2013-07-22 05:03:00,
2013-07-22 01:19:00,73.9,69.0,29.84,SSE,150,2.0,5.0,85,0.00,,,0.00,weatherlink.com 1.10,2013-07-22 05:19:00,
2013-07-22 01:34:00,74.2,69.0,29.83,SSE,149,3.0,5.0,84,0.00,,,0.00,weatherlink.com 1.10,2013-07-22 05:34:00,
2013-07-22 01:49:00,74.2,69.0,29.83,SE,136,1.0,2.0,84,0.00,,,0.00,weatherlink.com 1.10,2013-07-22 05:49:00,
2013-07-22 02:04:00,74.2,70.0,29.82,SE,129,2.0,2.0,85,0.00,,,0.00,weatherlink.com 1.10,2013-07-22 06:04:00,
2013-07-22 02:19:00,74.0,69.0,29.81,SSE,152,2.0,4.0,85,0.00,,,0.00,weatherlink.com 1.10,2013-07-22 06:19:00,
2013-07-22 02:34:00,74.0,69.0,29.80,SSE,165,3.0,4.0,84,0.00,,,0.00,weatherlink.com 1.10,2013-07-22 06:34:00,
2013-07-22 02:49:00,73.8,69.0,29.81,SSE,167,3.0,4.0,85,0.00,,,0.00,weatherlink.com 1.10,2013-07-22 06:49:00,
2013-07-22 03:04:00,73.8,69.0,29.81,South,186,6.0,8.0,86,0.00,,,0.00,weatherlink.com 1.10,2013-07-22 07:04:00,
2013-07-22 03:19:00,73.6,70.0,29.80,SW,218,2.0,7.0,87,0.00,,,0.00,weatherlink.com 1.10,2013-07-22 07:19:00,
2013-07-22 03:34:00,73.1,70.0,29.80,SW,226,4.0,7.0,89,0.00,,,0.00,weatherlink.com 1.10,2013-07-22 07:34:00,
2013-07-22 03:49:00,72.5,70.0,29.79,WSW,243,1.0,4.0,90,0.00,,,0.00,weatherlink.com 1.10,2013-07-22 07:49:00,
2013-07-22 04:04:00,71.8,69.0,29.79,WSW,243,3.0,5.0,90,0.00,,,0.00,weatherlink.com 1.10,2013-07-22 08:04:00,
2013-07-22 04:19:00,71.2,68.0,29.79,SW,226,0.0,6.0,90,0.00,,,0.00,weatherlink.com 1.10,2013-07-22 08:19:00,
2013-07-22 04:34:00,70.9,68.0,29.80,SW,232,2.0,2.0,90,0.00,,,0.00,weatherlink.com 1.10,2013-07-22 08:34:00,
2013-07-22 04:49:00,70.6,68.0,29.80,SW,233,0.0,1.0,90,0.00,,,0.00,weatherlink.com 1.10,2013-07-22 08:49:00,
2013-07-22 05:04:00,70.3,68.0,29.80,WSW,246,0.0,1.0,91,0.00,,,0.00,weatherlink.com 1.10,2013-07-22 09:04:00,
2013-07-22 05:19:00,70.2,67.0,29.80,WSW,246,0.0,1.0,90,0.00,,,0.00,weatherlink.com 1.10,2013-07-22 09:19:00,
2013-07-22 05:34:00,70.4,67.0,29.80,North,349,2.0,2.0,90,0.00,,,0.00,weatherlink.com 1.10,2013-07-22 09:34:00,
2013-07-22 05:49:00,70.2,67.0,29.80,NNW,343,2.0,2.0,90,0.00,,,0.00,weatherlink.com 1.10,2013-07-22 09:49:00,
2013-07-22 06:04:00,70.2,67.0,29.79,NNW,342,1.0,2.0,89,0.00,,,0.00,weatherlink.com 1.10,2013-07-22 10:04:00,
2013-07-22 06:19:00,70.1,67.0,29.80,NNW,342,0.0,1.0,89,0.00,,,0.00,weatherlink.com 1.10,2013-07-22 10:19:00,
2013-07-22 06:34:00,69.9,67.0,29.80,WNW,290,1.0,2.0,90,0.00,,,0.00,weatherlink.com 1.10,2013-07-22 10:34:00,
2013-07-22 06:49:00,69.6,67.0,29.81,NNW,338,2.0,3.0,91,0.00,,,0.00,weatherlink.com 1.10,2013-07-22 10:49:00,
2013-07-22 07:04:00,69.8,67.0,29.81,NNE,25,3.0,3.0,91,0.00,,,0.00,weatherlink.com 1.10,2013-07-22 11:04:00,
2013-07-22 07:19:00,69.7,67.0,29.81,NNE,26,1.0,4.0,91,0.00,,,0.00,weatherlink.com 1.10,2013-07-22 11:19:00,
2013-07-22 07:34:00,69.8,67.0,29.80,ESE,118,2.0,2.0,92,0.00,,,0.00,weatherlink.com 1.10,2013-07-22 11:34:00,
2013-07-22 07:49:00,70.1,68.0,29.80,SE,134,1.0,3.0,92,0.00,,,0.00,weatherlink.com 1.10,2013-07-22 11:49:00,
2013-07-22 08:04:00,70.2,68.0,29.79,East,94,2.0,5.0,92,0.00,,,0.00,weatherlink.com 1.10,2013-07-22 12:04:00,
2013-07-22 08:19:00,70.2,68.0,29.80,East,89,0.0,2.0,92,0.00,,,0.00,weatherlink.com 1.10,2013-07-22 12:19:00,
2013-07-22 08:34:00,70.6,68.0,29.80,ENE,58,0.0,2.0,91,0.00,,,0.00,weatherlink.com 1.10,2013-07-22 12:34:00,
2013-07-22 08:49:00,71.0,68.0,29.80,SSE,148,1.0,2.0,91,0.00,,,0.00,weatherlink.com 1.10,2013-07-22 12:49:00,
2013-07-22 09:04:00,71.3,68.0,29.80,SE,143,1.0,3.0,90,0.00,,,0.00,weatherlink.com 1.10,2013-07-22 13:04:00,
2013-07-22 09:19:00,71.5,69.0,29.80,ESE,103,1.0,4.0,90,0.00,,,0.00,weatherlink.com 1.10,2013-07-22 13:19:00,
2013-07-22 09:34:00,72.2,69.0,29.80,ESE,122,2.0,3.0,89,0.00,,,0.00,weatherlink.com 1.10,2013-07-22 13:34:00,
2013-07-22 09:49:00,72.5,69.0,29.80,SE,127,3.0,4.0,87,0.00,,,0.00,weatherlink.com 1.10,2013-07-22 13:49:00,
2013-07-22 10:04:00,72.8,69.0,29.79,East,101,2.0,5.0,88,0.00,,,0.00,weatherlink.com 1.10,2013-07-22 14:04:00,
2013-07-22 10:19:00,73.2,69.0,29.79,East,91,5.0,5.0,86,0.00,,,0.00,weatherlink.com 1.10,2013-07-22 14:19:00,
2013-07-22 10:34:00,73.0,69.0,29.79,East,92,3.0,5.0,86,0.00,,,0.00,weatherlink.com 1.10,2013-07-22 14:34:00,
2013-07-22 10:49:00,72.9,69.0,29.79,ESE,105,1.0,3.0,87,0.00,,,0.00,weatherlink.com 1.10,2013-07-22 14:49:00,
2013-07-22 11:04:00,73.4,69.0,29.79,ESE,111,1.0,4.0,86,0.00,,,0.00,weatherlink.com 1.10,2013-07-22 15:04:00,
2013-07-22 11:19:00,74.2,69.0,29.79,South,181,6.0,6.0,84,0.00,,,0.00,weatherlink.com 1.10,2013-07-22 15:19:00,
2013-07-22 11:34:00,73.9,69.0,29.79,SSW,203,3.0,7.0,83,0.00,,,0.00,weatherlink.com 1.10,2013-07-22 15:34:00,
2013-07-22 11:49:00,74.0,69.0,29.78,ESE,119,5.0,7.0,84,0.00,,,0.00,weatherlink.com 1.10,2013-07-22 15:49:00,
2013-07-22 12:04:00,73.9,69.0,29.78,SSW,201,4.0,7.0,85,0.00,,,0.00,weatherlink.com 1.10,2013-07-22 16:04:00,
2013-07-22 12:19:00,74.1,69.0,29.78,SSE,167,4.0,6.0,84,0.00,,,0.00,weatherlink.com 1.10,2013-07-22 16:19:00,
2013-07-22 12:34:00,74.5,69.0,29.79,SE,134,3.0,7.0,83,0.00,,,0.00,weatherlink.com 1.10,2013-07-22 16:34:00,
2013-07-22 12:49:00,74.8,69.0,29.79,SSE,156,3.0,5.0,82,0.00,,,0.00,weatherlink.com 1.10,2013-07-22 16:49:00,
2013-07-22 13:05:00,75.5,69.0,29.78,SE,127,3.0,6.0,80,0.00,,,0.00,weatherlink.com 1.10,2013-07-22 17:05:00,
2013-07-22 13:20:00,75.2,69.0,29.78,SSE,164,2.0,5.0,82,0.00,,,0.00,weatherlink.com 1.10,2013-07-22 17:20:00,
2013-07-22 13:35:00,75.6,69.0,29.78,NNW,335,3.0,4.0,81,0.00,,,0.00,weatherlink.com 1.10,2013-07-22 17:35:00,
2013-07-22 13:50:00,76.3,70.0,29.77,NNW,330,2.0,4.0,80,0.00,,,0.00,weatherlink.com 1.10,2013-07-22 17:50:00,
2013-07-22 14:05:00,76.6,70.0,29.77,NE,46,3.0,4.0,79,0.00,,,0.00,weatherlink.com 1.10,2013-07-22 18:05:00,
2013-07-22 14:20:00,77.5,70.0,29.77,East,101,2.0,3.0,78,0.00,,,0.00,weatherlink.com 1.10,2013-07-22 18:20:00,
2013-07-22 14:35:00,78.1,70.0,29.77,WNW,294,3.0,5.0,76,0.00,,,0.00,weatherlink.com 1.10,2013-07-22 18:35:00,
2013-07-22 14:50:00,79.2,71.0,29.76,NE,35,5.0,8.0,75,0.00,,,0.00,weatherlink.com 1.10,2013-07-22 18:50:00,
2013-07-22 15:05:00,78.3,71.0,29.75,NE,44,7.0,10.0,79,0.00,,,0.00,weatherlink.com 1.10,2013-07-22 19:05:00,
2013-07-22 15:20:00,77.7,70.0,29.76,NE,41,3.0,8.0,78,0.00,,,0.00,weatherlink.com 1.10,2013-07-22 19:20:00,
2013-07-22 15:35:00,77.4,70.0,29.75,ENE,61,2.0,5.0,78,0.00,,,0.00,weatherlink.com 1.10,2013-07-22 19:35:00,
2013-07-22 15:50:00,78.8,70.0,29.75,North,356,5.0,6.0,75,0.00,,,0.00,weatherlink.com 1.10,2013-07-22 19:50:00,
2013-07-22 16:05:00,79.1,70.0,29.75,NNW,344,5.0,8.0,74,0.00,,,0.00,weatherlink.com 1.10,2013-07-22 20:05:00,
2013-07-22 16:20:00,80.3,70.0,29.74,North,358,6.0,8.0,71,0.00,,,0.00,weatherlink.com 1.10,2013-07-22 20:20:00,
2013-07-22 16:35:00,80.0,70.0,29.75,NNW,345,5.0,7.0,71,0.00,,,0.00,weatherlink.com 1.10,2013-07-22 20:35:00,
2013-07-22 16:50:00,80.5,69.0,29.74,NNW,347,5.0,8.0,68,0.00,,,0.00,weatherlink.com 1.10,2013-07-22 20:50:00,
2013-07-22 17:05:00,80.9,70.0,29.74,East,94,2.0,6.0,70,0.00,,,0.00,weatherlink.com 1.10,2013-07-22 21:05:00,
2013-07-22 17:20:00,80.3,69.0,29.74,NNE,20,5.0,10.0,69,0.00,,,0.00,weatherlink.com 1.10,2013-07-22 21:20:00,
2013-07-22 17:35:00,79.7,71.0,29.74,NNW,340,6.0,10.0,74,0.00,,,0.00,weatherlink.com 1.10,2013-07-22 21:35:00,
2013-07-22 17:50:00,80.1,70.0,29.74,NNW,347,8.0,8.0,72,0.00,,,0.00,weatherlink.com 1.10,2013-07-22 21:50:00,
2013-07-22 18:05:00,80.4,71.0,29.74,ENE,75,3.0,8.0,72,0.00,,,0.00,weatherlink.com 1.10,2013-07-22 22:05:00,
2013-07-22 18:20:00,80.8,70.0,29.73,NW,323,4.0,7.0,70,0.00,,,0.00,weatherlink.com 1.10,2013-07-22 22:20:00,
2013-07-22 18:35:00,80.9,70.0,29.73,North,349,5.0,6.0,69,0.00,,,0.00,weatherlink.com 1.10,2013-07-22 22:35:00,
2013-07-22 18:50:00,80.6,70.0,29.73,NNW,338,4.0,7.0,70,0.00,,,0.00,weatherlink.com 1.10,2013-07-22 22:50:00,
2013-07-22 19:05:00,80.6,70.0,29.73,NNW,327,3.0,7.0,69,0.00,,,0.00,weatherlink.com 1.10,2013-07-22 23:05:00,
2013-07-22 19:20:00,80.6,70.0,29.73,NNW,334,4.0,7.0,71,0.00,,,0.00,weatherlink.com 1.10,2013-07-22 23:20:00,
2013-07-22 19:35:00,80.6,70.0,29.73,NNE,23,4.0,4.0,70,0.00,,,0.00,weatherlink.com 1.10,2013-07-22 23:35:00,
2013-07-22 19:50:00,80.7,71.0,29.73,NW,311,4.0,4.0,71,0.00,,,0.00,weatherlink.com 1.10,2013-07-22 23:50:00,
2013-07-22 20:05:00,80.2,70.0,29.74,NW,326,2.0,4.0,72,0.00,,,0.00,weatherlink.com 1.10,2013-07-23 00:05:00,
2013-07-22 20:20:00,79.5,70.0,29.74,NNW,327,2.0,4.0,73,0.00,,,0.00,weatherlink.com 1.10,2013-07-23 00:20:00,
2013-07-22 20:35:00,78.6,70.0,29.74,NW,321,2.0,4.0,75,0.00,,,0.00,weatherlink.com 1.10,2013-07-23 00:35:00,
2013-07-22 20:50:00,77.4,70.0,29.74,NNW,327,1.0,2.0,78,0.00,,,0.00,weatherlink.com 1.10,2013-07-23 00:50:00,
2013-07-22 21:05:00,76.3,70.0,29.74,NW,325,2.0,2.0,80,0.00,,,0.00,weatherlink.com 1.10,2013-07-23 01:05:00,
2013-07-22 21:20:00,75.2,69.0,29.73,NW,319,0.0,1.0,82,0.00,,,0.00,weatherlink.com 1.10,2013-07-23 01:20:00,
2013-07-22 21:35:00,74.7,69.0,29.74,NW,319,0.0,1.0,83,0.00,,,0.00,weatherlink.com 1.10,2013-07-23 01:35:00,
2013-07-22 21:50:00,73.9,69.0,29.75,NW,316,0.0,0.0,85,0.00,,,0.00,weatherlink.com 1.10,2013-07-23 01:50:00,
2013-07-22 22:05:00,73.4,69.0,29.76,NW,318,0.0,0.0,86,0.00,,,0.00,weatherlink.com 1.10,2013-07-23 02:05:00,
2013-07-22 22:20:00,73.1,69.0,29.76,NW,316,0.0,0.0,86,0.00,,,0.00,weatherlink.com 1.10,2013-07-23 02:20:00,
2013-07-22 22:35:00,72.6,68.0,29.77,NW,311,0.0,0.0,86,0.00,,,0.00,weatherlink.com 1.10,2013-07-23 02:35:00,
2013-07-22 22:50:00,71.3,68.0,29.77,NW,310,0.0,0.0,88,0.00,,,0.00,weatherlink.com 1.10,2013-07-23 02:50:00,
2013-07-22 23:05:00,71.2,68.0,29.78,NW,310,0.0,0.0,89,0.00,,,0.00,weatherlink.com 1.10,2013-07-23 03:05:00,
2013-07-22 23:20:00,71.0,68.0,29.77,NW,310,0.0,0.0,89,0.00,,,0.00,weatherlink.com 1.10,2013-07-23 03:20:00,
2013-07-22 23:35:00,70.5,68.0,29.77,NW,310,0.0,0.0,90,0.00,,,0.00,weatherlink.com 1.10,2013-07-23 03:35:00,
2013-07-22 23:50:00,70.7,68.0,29.77,NW,311,0.0,0.0,90,0.00,,,0.00,weatherlink.com 1.10,2013-07-23 03:50:00,